MST,Max TemperatureF,Mean TemperatureF,Min TemperatureF,Max Dew PointF,MeanDew PointF,Min DewpointF,Max Humidity, Mean Humidity, Min Humidity, Max Sea Level PressureIn, Mean Sea Level PressureIn, Min Sea Level PressureIn, Max VisibilityMiles, Mean VisibilityMiles, Min VisibilityMiles, Max Wind SpeedMPH, Mean Wind SpeedMPH, Max Gust SpeedMPH,PrecipitationIn, CloudCover, Events, WindDirDegrees
2013-2-1,55,36,16,23,19,13,83,57,15,30.34,30.27,30.19,10,10,10,7,4,,0.00,0,,175
2013-2-2,51,35,19,26,18,12,81,50,17,30.44,30.32,30.24,10,10,10,10,4,,0.00,0,,181
2013-2-3,44,36,29,36,28,19,93,67,39,30.22,30.11,29.99,10,10,8,13,3,,0.02,6,Rain,244
2013-2-4,50,36,21,36,28,20,100,80,26,30.17,30.11,30.02,10,6,0,13,2,48,0.00,3,Fog,325
2013-2-5,54,36,19,27,20,15,89,53,14,30.15,30.04,29.96,10,10,9,12,3,,0.00,0,,178
2013-2-6,48,38,27,36,28,20,95,63,32,30.06,29.95,29.85,10,10,7,14,5,24,0.02,3,Rain,231
2013-2-7,48,34,19,33,27,18,96,64,27,30.14,30.04,29.97,10,10,8,9,2,,0.00,1,,163
2013-2-8,50,38,27,27,15,2,82,39,11,29.96,29.73,29.61,10,10,10,37,13,50,0.00,1,,182
2013-2-9,30,24,19,27,22,16,93,75,46,29.92,29.73,29.57,10,6,0,31,15,38,0.16,5,Fog-Snow,233
2013-2-10,33,20,7,22,18,4,88,66,39,30.02,29.92,29.84,10,9,0,18,12,23,0.16,6,Snow,244
2013-2-11,30,14,-2,25,21,-6,88,79,64,30.21,29.97,29.93,10,7,1,15,6,,0.02,8,Snow,318
2013-2-12,37,14,-8,18,13,-11,88,66,28,30.35,30.21,30.08,10,10,8,12,5,,0.00,1,,255
2013-2-13,39,20,1,17,13,-2,84,57,26,30.32,30.23,30.16,10,10,1,9,3,,0.00,0,,268
2013-2-14,43,26,8,19,16,4,84,54,28,30.25,30.19,30.13,10,10,5,17,5,20,0.00,0,,278
2013-2-15,46,35,24,19,11,-1,84,44,11,30.42,30.33,30.24,10,10,10,15,5,20,0.00,0,,242
2013-2-16,54,33,12,13,7,-1,71,36,9,30.48,30.31,30.11,10,10,5,9,3,,0.00,0,,176
2013-2-17,51,34,17,13,7,2,71,33,10,30.12,29.90,29.74,10,10,8,28,7,40,0.00,0,,239
2013-2-18,53,35,17,14,9,2,68,31,14,30.06,29.98,29.81,10,10,10,17,8,,0.00,0,,243
2013-2-19,41,30,19,21,9,1,73,36,11,29.99,29.79,29.55,10,10,7,22,5,33,0.00,0,,206
2013-2-20,32,26,20,29,21,8,93,67,37,29.78,29.59,29.48,10,7,0,25,8,36,0.12,6,Fog-Snow,222
2013-2-21,34,26,18,27,21,16,94,71,52,29.99,29.83,29.69,10,8,1,22,16,31,0.01,7,Snow,244
2013-2-22,36,24,12,22,14,6,81,54,20,30.14,30.01,29.92,10,10,10,24,6,29,0.00,2,,262
2013-2-23,37,24,10,21,14,6,73,44,20,30.10,29.90,29.70,10,10,2,25,9,36,0.00,1,Snow,239
2013-2-24,28,20,12,25,19,3,93,77,25,30.06,29.84,29.74,10,5,0,24,10,31,0.01,7,Fog-Snow,299
2013-2-25,42,25,8,20,14,5,74,55,16,30.24,30.11,29.99,10,10,10,17,7,,0.00,0,Rain,221
2013-2-26,39,30,19,17,7,-3,81,41,11,30.14,30.01,29.89,10,10,9,24,8,39,0.00,0,,269
2013-2-27,39,29,19,9,5,-8,74,40,9,30.32,30.24,30.17,10,10,7,17,4,,0.00,0,,201
2013-2-28,46,34,23,11,5,-7,77,38,7,30.43,30.36,30.27,10,10,10,15,5,17,0.00,0,,250